Simultaneous Nadir Overpasses (SNOs) Predictions

Prediction of SNOs between AQUA and GOES-15 Satellite Orbit:

Table of predicted SNOs for the next 14.0 days since TLE Epoch: 8/11/2018
Index Date Time (AQUA) AQUA Lat,Lon GOES-15 Lat,Lon Distance(km) Time Diff (sec)
1 08/11/2018 10:45:05 0.13,-137.30 -0.33,-135.24 234.97 80
2 08/13/2018 10:32:52 -0.49,-134.34 -0.33,-135.19 96.10 80
3 08/13/2018 22:54:16 -0.57,-139.54 0.35,-135.21 492.25 80
4 08/15/2018 10:20:39 -1.11,-131.38 -0.33,-135.14 426.89 80
5 08/15/2018 22:42:03 0.06,-136.58 0.35,-135.15 161.41 80
6 08/17/2018 22:29:50 0.69,-133.62 0.35,-135.10 168.92 80
7 08/18/2018 10:51:04 0.46,-138.76 -0.36,-135.05 422.88 80
8 08/19/2018 22:17:36 1.26,-130.64 0.35,-135.03 498.63 80
9 08/20/2018 10:38:52 -0.17,-135.80 -0.36,-134.99 93.36 80
10 08/22/2018 10:26:39 -0.81,-132.84 -0.37,-134.92 235.60 80
11 08/22/2018 22:48:01 -0.30,-138.03 0.38,-134.92 353.72 80
12 08/24/2018 22:35:48 0.34,-135.07 0.38,-134.85 25.22 80




NCC Satellite Simultaneous Nadir Overpasses (SNOs) Prediction Service
